Location: Pine Mountain Observatory
(43.7910°N, 120.9377°W)
Time: 17:58:51
(UTC-07:00)

Vanguard 1 Rocket - Visible Passes

Search period start: 21 May 2019 00:00
Search period end: 31 May 2019 00:00
Orbit: 652 x 4224 km, 34.3° (Epoch: 20 May)

Date Brightness Start Highest point End Pass type
(mag) Time Alt. Az. Time Alt. Az. Time Alt. Az.
21 May 8.5 03:38:11 24° SSW 03:41:15 36° SSE 03:50:19 10° E visible
22 May 8.8 02:30:51 23° SSE 02:30:51 23° SSE 02:36:32 10° E visible
22 May 8.8 04:48:36 10° WSW 04:55:00 46° S 05:06:50 10° ESE visible
23 May 8.4 03:40:48 24° SW 03:43:55 38° SSE 03:52:49 10° E visible
24 May 8.5 02:33:29 27° SSE 02:33:29 27° SSE 02:39:22 10° ESE visible
24 May 8.7 04:51:34 10° WSW 04:57:46 44° S 05:09:01 10° ESE visible
25 May 8.3 03:43:28 23° SW 03:46:40 39° S 03:55:16 10° ESE visible
26 May 8.2 02:36:10 29° SSE 02:36:10 29° SSE 02:42:07 10° ESE visible
27 May 9.4 01:28:54 11° ESE 01:28:54 11° ESE 01:29:19 10° ESE visible
27 May 8.2 03:46:11 21° SW 03:49:28 38° S 03:57:42 10° ESE visible
28 May 8.0 02:38:56 31° SSE 02:38:56 31° SSE 02:44:46 10° ESE visible
29 May 9.3 01:31:44 12° ESE 01:31:44 12° ESE 01:32:20 10° ESE visible
29 May 8.2 03:49:01 20° SW 03:52:18 35° S 04:00:01 10° ESE visible
30 May 8.0 02:41:51 31° SSE 02:41:51 31° SSE 02:47:23 10° ESE visible
